Temperature
20 21 20 20 20 19 19 19 19 19 19 19 19 19 19 19 19 19 19 19 19 18 18 18 18 18 18 18 18 18 18 18 18 18 18 18 18 17 17 17 17 17 17
21 21 20 20 20 19 19 19 19 19 19 19 19 19 19 18 18 18 18 18 18 18 18 18 18 18 18 18 18 18 18 18 18 18 18 18 17 17 17 17 17 17 17
21 21 21 20 20 20 19 19 19 19 19 19 19 18 18 18 18 18 18 18 18 18 18 18 18 18 18 18 18 18 18 18 18 18 17 17 17 17 17 17 17 17 17
21 21 21 20 20 20 19 19 19 19 19 19 19 18 18 18 18 18 18 18 18 18 18 18 18 18 18 18 18 18 18 18 17 17 17 17 17 17 17 17 17 17 17
20 20 21 20 20 20 19 19 19 19 19 19 18 18 18 18 18 18 18 18 18 18 18 18 18 18 18 18 18 18 17 17 17 17 17 17 17 17 17 17 17 17 17
20 21 21 20 20 20 19 19 19 19 19 19 18 18 18 18 18 18 18 18 18 18 18 18 18 18 18 18 18 18 17 17 17 17 17 17 17 17 17 17 17 17 17
20 21 21 20 20 19 19 19 19 19 19 18 18 18 18 18 18 18 18 18 18 18 18 18 18 18 18 18 18 18 17 17 17 17 17 17 17 17 17 17 17 17 17
21 21 21 20 20 19 19 19 19 19 19 18 18 18 18 18 18 18 18 18 18 18 18 18 18 18 18 18 18 18 17 17 17 17 17 17 17 17 17 17 17 17 17
21 21 21 20 20 19 19 19 19 19 19 18 18 18 18 18 18 18 18 18 18 18 18 18 18 18 18 18 18 18 18 18 17 17 17 18 17 17 17 17 17 17 17
21 20 20 20 20 19 19 19 19 19 19 19 18 18 18 18 18 18 18 18 18 18 18 18 18 18 18 18 18 18 18 18 17 17 18 18 17 17 17 17 17 17 17
21 20 20 19 19 19 19 19 19 19 19 18 18 18 18 18 18 18 18 18 18 18 18 18 18 18 18 18 18 18 18 18 18 18 18 18 17 17 17 17 17 17 17
21 21 20 20 19 19 18 19 19 18 18 18 18 18 18 17 17 18 18 18 18 18 18 18 18 18 18 18 18 18 18 18 18 18 18 18 17 17 17 17 17 17 17
21 21 20 20 20 19 19 19 18 18 18 18 18 18 18 18 18 18 18 18 18 18 18 18 18 17 17 18 18 18 18 18 18 18 18 18 17 17 17 17 17 17 17
21 21 21 20 20 20 19 19 18 18 18 18 18 18 18 18 18 18 18 18 18 18 18 18 18 17 17 18 18 18 18 18 18 18 18 18 17 17 17 17 17 17 17
21 21 20 20 20 19 19 19 19 18 18 18 18 18 18 18 18 18 18 18 18 18 18 18 17 17 18 18 18 18 18 18 18 18 18 18 18 18 17 17 17 17 17
21 20 20 20 19 19 19 19 19 19 19 19 18 18 18 18 18 18 18 18 18 18 18 18 18 18 18 18 18 18 18 18 18 17 18 18 18 18 18 17 17 17 17
21 20 20 19 19 19 19 19 19 19 19 19 18 18 18 18 18 18 18 18 18 18 18 18 18 18 18 18 18 18 18 18 17 17 17 17 18 18 18 17 17 17 17
21 20 20 19 19 19 19 19 19 19 19 19 19 18 18 18 18 18 18 18 18 18 18 18 18 18 18 18 18 18 18 18 17 17 17 17 17 17 17 17 17 17 17
21 20 20 20 19 19 19 19 19 19 19 19 18 18 18 18 18 18 18 18 18 18 18 18 18 18 18 18 18 18 18 18 18 18 17 17 17 17 17 17 17 17 17
21 20 20 20 19 19 19 19 19 19 19 19 18 18 18 18 18 18 18 18 18 18 18 18 18 18 18 18 18 18 18 18 18 18 18 18 17 17 17 17 17 17 17
21 20 20 20 20 19 19 19 19 19 19 18 18 18 18 18 18 18 18 18 18 18 18 18 18 18 18 18 18 18 18 18 18 18 18 18 17 17 17 17 17 17 17
21 20 20 20 20 19 19 19 19 19 19 19 18 18 18 18 18 18 18 18 18 18 18 18 18 18 18 18 18 18 18 18 18 18 18 18 18 17 17 17 17 17 17
21 21 20 20 20 19 19 19 18 18 19 18 18 18 18 18 18 18 18 18 18 18 18 18 18 18 18 18 18 18 18 18 18 18 18 18 18 18 17 17 17 17 17
21 21 20 20 20 19 19 19 19 18 19 19 18 18 18 18 18 18 18 18 18 18 18 18 18 18 18 18 18 18 18 18 18 18 18 18 18 18 18 17 17 17 17
22 21 20 20 20 19 19 19 19 18 18 18 18 18 18 18 18 18 18 18 18 18 18 18 18 18 18 18 18 18 18 18 18 18 18 18 18 18 18 17 17 17 17
22 21 20 20 20 19 19 19 18 18 18 18 18 18 18 18 18 18 18 18 18 18 18 18 18 18 18 18 18 18 18 18 18 18 18 18 18 18 18 17 17 17 17
Wind_Speed
14 15 15 14 15 15 15 15 14 14 14 14 13 13 13 14 14 14 14 14 13 13 12 12 12 12 13 14 14 15 15 16 17 18 18 18 17 16 15 16 18 17 18
18 17 16 15 15 15 15 15 14 14 13 13 13 12 12 13 13 13 13 13 13 12 12 11 12 12 12 13 14 14 15 15 16 17 18 17 15 14 14 15 17 16 17
18 18 17 16 16 15 15 15 14 14 13 13 12 12 12 12 12 12 12 12 12 12 11 11 11 12 12 13 13 13 13 14 15 16 17 16 15 16 17 18 18 17 17
19 18 17 17 16 15 15 14 14 13 12 12 11 11 11 10 11 11 11 11 12 12 12 11 11 12 12 12 12 12 12 11 12 12 12 15 15 15 16 16 16 16 16
18 19 18 17 16 15 15 14 13 13 12 11 11 11 11 10 10 10 10 11 11 12 12 12 12 12 12 11 11 10 9 9 8 8 14 16 15 15 15 15 15 15 15
19 20 18 17 17 15 15 14 13 13 12 12 11 10 10 10 10 10 10 11 11 11 12 12 12 12 11 10 9 8 6 6 5 9 15 16 14 14 15 14 14 14 15
20 20 19 17 16 15 14 13 13 12 12 11 11 10 10 10 10 10 10 11 11 12 12 12 12 11 10 9 7 5 3 3 4 11 14 15 14 15 14 14 14 14 15
20 20 19 17 16 15 14 13 13 12 12 11 11 10 10 9 10 10 10 10 11 11 12 12 11 11 10 8 6 3 2 1 7 13 16 15 15 14 14 13 14 14 14
19 19 17 17 15 15 14 13 13 12 11 11 10 10 10 10 10 10 10 10 10 11 11 11 11 10 9 7 4 1 1 1 5 12 15 14 15 14 13 13 13 13 13
16 16 15 16 16 15 13 13 12 11 11 10 10 10 10 10 10 10 11 10 10 10 10 11 10 9 7 5 3 2 3 3 5 13 14 14 16 14 13 13 13 12 12
13 13 13 14 14 15 15 14 13 11 10 10 9 10 10 9 10 9 11 10 10 10 10 10 9 9 7 5 4 3 4 1 9 13 14 16 16 14 13 12 12 11 11
13 12 10 12 11 12 13 13 12 11 11 9 9 10 8 7 9 11 12 10 9 9 9 9 9 8 7 7 6 5 4 4 8 12 14 17 15 14 12 11 11 11 10
12 10 10 10 9 10 9 10 8 8 9 9 8 7 7 7 9 11 9 9 9 9 8 9 8 7 7 5 5 4 2 4 8 13 14 15 14 13 12 11 10 10 10
12 11 9 9 7 7 8 7 6 7 7 7 8 7 7 4 5 7 6 8 9 7 6 7 6 5 4 4 4 3 2 4 9 13 13 15 13 12 11 10 10 9 9
11 10 10 8 7 6 5 3 5 5 6 7 9 6 5 4 3 5 4 5 5 7 6 4 4 3 3 3 3 4 3 4 9 12 12 14 13 13 12 11 10 9 9
10 9 9 9 8 6 4 2 1 4 5 7 8 8 6 5 6 4 4 3 3 5 5 5 6 3 2 2 1 3 3 4 7 11 13 13 13 13 12 11 11 10 10
10 10 9 9 9 8 6 5 4 4 5 5 7 8 6 5 7 5 4 3 4 6 5 3 5 5 3 3 3 3 3 4 6 8 12 13 12 13 13 13 12 11 11
11 10 9 10 11 9 7 5 4 3 3 4 6 7 7 6 8 5 3 3 6 6 5 3 2 3 3 3 3 3 3 3 5 7 10 13 13 13 13 14 14 13 12
10 10 9 8 11 10 8 5 3 2 1 2 4 7 7 7 8 6 3 3 5 4 3 3 3 2 2 2 3 3 3 4 4 6 7 9 12 13 13 15 16 15 13
10 10 10 8 9 9 7 5 2 2 2 3 3 5 8 7 7 6 4 5 5 3 3 2 3 2 1 2 2 2 3 4 4 3 5 7 9 11 13 14 14 14 15
11 10 10 10 9 8 6 6 5 4 3 3 4 6 7 6 7 5 2 4 3 2 3 4 3 3 3 2 1 1 1 3 4 4 4 4 6 9 11 15 14 13 13
11 11 10 10 10 9 7 5 4 4 4 4 3 5 7 7 7 7 4 4 4 3 3 3 2 2 3 3 2 2 1 1 1 4 4 5 5 7 8 13 14 13 12
12 11 11 10 10 10 8 6 4 3 3 4 4 4 6 7 8 6 6 4 4 4 5 5 5 4 3 2 3 3 2 3 1 1 3 4 5 4 4 8 12 13 13
12 11 9 10 9 9 8 8 8 7 6 6 4 5 5 7 7 7 5 5 3 3 5 6 6 5 4 3 3 3 3 2 2 1 1 3 5 5 4 5 7 11 12
11 11 10 9 9 8 8 8 8 6 5 4 4 5 5 5 6 7 6 5 4 4 4 5 4 5 4 4 3 3 4 3 4 3 3 2 2 3 3 3 4 7 9
10 10 10 9 9 9 9 8 8 7 6 5 5 5 5 4 5 7 7 5 5 5 5 4 3 5 4 4 4 4 3 3 4 3 3 4 3 2 3 2 3 5 7
Wind_Direction
115 115 110 107 108 110 111 111 110 108 104 102 101 98 95 93 92 93 94 96 98 99 100 99 99 96 94 93 93 95 96 98 100 102 102 102 102 101 102 107 103 99 101
119 117 113 110 111 112 113 113 112 111 108 105 104 102 100 98 98 98 98 100 100 99 100 101 102 102 101 102 101 102 104 107 110 111 108 102 98 95 95 95 97 105 104
119 120 116 111 112 113 113 113 114 114 111 109 106 105 104 104 103 102 102 103 103 103 102 103 105 106 106 108 109 110 113 118 123 123 116 107 100 95 96 97 101 107 105
125 127 118 116 115 115 115 115 115 114 112 111 108 108 107 108 107 105 104 105 106 105 105 105 106 106 109 111 114 118 124 131 136 138 119 112 107 103 104 104 106 107 106
121 117 119 120 118 117 117 117 116 115 115 114 112 110 108 108 109 110 109 109 108 107 108 108 108 107 111 115 119 126 136 143 149 130 100 101 105 113 111 110 110 110 110
123 122 123 123 121 120 119 118 117 117 117 116 114 112 111 109 109 110 111 112 111 110 109 110 110 109 112 117 125 134 146 157 156 117 112 111 112 115 114 114 113 111 111
126 124 127 127 125 124 123 121 120 119 117 116 115 113 113 112 112 112 114 113 115 113 111 112 112 112 115 120 128 139 157 168 146 116 109 108 117 120 117 115 115 113 112
125 125 128 129 128 128 127 126 124 122 120 117 116 116 115 114 113 114 118 116 117 116 115 114 115 116 118 121 128 139 155 217 121 115 112 114 124 122 120 120 119 117 114
126 129 137 138 135 134 133 132 129 127 124 123 122 123 123 121 119 120 120 120 120 120 119 119 120 122 123 128 140 172 290 1 114 118 117 120 127 126 125 124 122 122 120
127 134 143 145 144 145 142 139 135 133 132 131 132 134 134 133 132 132 128 124 126 126 126 127 127 129 133 143 168 234 305 317 130 113 114 124 129 129 128 128 127 127 126
130 137 146 145 152 153 149 145 145 143 145 146 150 153 154 157 146 147 125 131 133 134 134 136 139 143 149 168 197 245 279 192 107 104 112 128 132 132 131 133 133 133 133
143 145 144 147 153 151 146 148 157 159 162 171 164 169 174 161 146 133 134 139 143 145 147 151 156 164 178 177 194 225 245 150 120 112 123 135 136 136 136 137 139 140 139
151 147 148 148 149 141 139 154 158 157 163 172 166 169 165 154 142 136 147 151 160 165 167 156 174 195 198 175 170 196 199 99 104 111 132 138 141 141 142 143 145 145 145
153 151 152 140 132 127 133 142 154 157 165 162 154 170 156 156 148 139 152 164 167 167 162 169 190 188 182 160 151 163 135 112 111 118 139 145 147 147 149 151 151 152 150
156 155 150 134 123 113 108 145 160 159 160 153 151 175 167 162 143 135 143 153 165 152 163 183 158 147 158 153 160 143 123 112 120 126 140 152 154 155 158 161 160 160 159
157 156 148 140 135 133 141 177 176 169 155 156 158 167 182 156 138 143 147 170 171 157 161 167 148 155 188 166 153 139 149 131 125 135 146 157 161 163 167 169 170 169 169
155 157 158 156 149 154 167 189 195 205 172 159 152 157 169 159 143 150 147 180 171 151 144 159 155 164 190 176 165 175 170 150 150 146 152 161 168 174 178 179 178 179 180
157 161 172 173 160 166 178 195 209 211 170 146 151 154 166 163 156 164 170 183 165 164 166 167 182 178 181 177 175 188 158 154 159 168 171 170 171 177 183 187 186 188 190
159 163 173 171 162 169 177 187 215 201 176 152 154 159 171 184 170 173 182 147 172 175 176 189 164 170 176 196 195 182 172 172 171 189 187 180 175 172 177 188 191 192 196
162 166 171 174 167 166 170 177 202 211 198 195 179 161 172 189 179 187 177 172 202 182 168 156 133 154 169 211 235 177 194 179 181 189 189 186 181 181 180 179 185 196 203
169 171 174 179 172 170 173 180 187 197 207 205 191 175 187 196 181 198 208 163 201 186 175 174 171 184 211 202 190 182 238 204 185 183 188 183 188 192 178 172 182 190 198
174 177 177 181 177 179 181 177 181 187 207 214 198 176 196 200 194 199 206 193 185 181 188 197 191 209 219 201 192 181 205 271 247 210 185 185 191 187 182 178 182 186 190
178 183 184 181 180 184 176 173 182 185 223 213 190 186 203 201 203 215 190 209 186 191 190 198 200 210 227 225 209 186 184 208 216 253 203 186 179 180 183 176 184 187 189
180 180 176 175 178 179 180 187 190 198 211 214 199 192 200 206 205 208 203 207 207 215 189 200 201 206 216 234 229 228 217 168 175 207 243 201 187 190 187 190 185 178 181
176 174 175 173 175 179 188 192 197 212 219 218 212 199 200 206 208 213 208 201 205 224 217 216 183 201 216 232 236 229 225 202 205 191 208 216 190 189 187 191 159 156 167
170 169 170 169 174 180 190 196 202 214 218 214 214 207 205 211 210 215 214 198 208 218 221 211 193 207 221 231 252 256 234 223 213 205 203 197 197 204 174 147 139 136 155
Height
1528 1530 1531 1533 1534 1536 1537 1539 1540 1542 1543 1545 1546 1547 1548 1549 1550 1551 1552 1553 1555 1556 1557 1558 1560 1561 1561 1562 1563 1564 1565 1566 1567 1568 1569 1571 1572 1573 1574 1575 1576 1577 1578
1528 1531 1533 1535 1536 1538 1539 1541 1543 1544 1546 1547 1548 1549 1550 1551 1553 1554 1554 1555 1557 1558 1559 1560 1561 1562 1563 1564 1565 1566 1567 1568 1569 1570 1571 1573 1574 1575 1576 1577 1578 1579 1580
1530 1532 1535 1537 1539 1540 1542 1543 1545 1546 1548 1549 1550 1551 1552 1554 1555 1556 1556 1558 1558 1559 1560 1562 1563 1564 1565 1566 1567 1568 1569 1570 1571 1572 1574 1575 1576 1577 1578 1580 1580 1581 1582
1532 1534 1536 1538 1540 1542 1544 1545 1547 1548 1550 1551 1552 1553 1555 1556 1557 1557 1558 1559 1560 1561 1562 1563 1565 1565 1566 1567 1569 1570 1572 1572 1574 1575 1576 1577 1578 1579 1580 1582 1582 1584 1584
1534 1536 1538 1540 1542 1544 1546 1548 1549 1550 1552 1553 1554 1555 1556 1558 1558 1559 1560 1561 1562 1563 1564 1565 1566 1567 1568 1570 1571 1572 1574 1575 1576 1577 1578 1579 1580 1581 1582 1584 1584 1586 1587
1536 1538 1540 1542 1544 1546 1548 1549 1551 1552 1554 1555 1556 1557 1558 1559 1560 1561 1562 1563 1564 1565 1566 1567 1568 1569 1570 1572 1573 1574 1575 1577 1578 1579 1580 1581 1582 1583 1584 1585 1586 1588 1589
1538 1539 1542 1544 1546 1548 1549 1551 1552 1554 1555 1556 1558 1559 1560 1561 1562 1563 1564 1565 1566 1567 1568 1569 1570 1571 1572 1574 1575 1576 1577 1579 1580 1581 1582 1583 1584 1585 1586 1587 1588 1589 1591
1539 1541 1543 1545 1547 1549 1551 1553 1554 1555 1557 1558 1559 1560 1561 1562 1563 1564 1565 1567 1568 1569 1570 1571 1572 1573 1574 1576 1577 1578 1579 1580 1582 1583 1584 1585 1586 1587 1588 1589 1590 1591 1593
1541 1542 1544 1547 1549 1551 1552 1554 1555 1557 1558 1559 1560 1562 1563 1564 1565 1566 1567 1568 1569 1571 1572 1573 1574 1575 1576 1577 1579 1580 1581 1583 1584 1585 1585 1586 1588 1589 1590 1591 1592 1593 1594
1542 1544 1546 1548 1550 1552 1553 1555 1557 1558 1559 1561 1562 1563 1564 1566 1567 1568 1569 1570 1571 1572 1573 1574 1576 1577 1578 1579 1581 1582 1583 1584 1585 1586 1586 1588 1589 1590 1591 1592 1593 1595 1596
1544 1546 1548 1550 1551 1553 1555 1556 1558 1559 1561 1562 1563 1565 1566 1567 1568 1569 1570 1571 1573 1574 1575 1576 1577 1578 1580 1581 1582 1584 1585 1586 1587 1587 1588 1589 1590 1591 1592 1593 1595 1596 1597
1545 1547 1549 1551 1553 1555 1556 1557 1558 1560 1562 1563 1564 1566 1567 1569 1570 1571 1572 1573 1574 1575 1577 1578 1579 1580 1581 1583 1584 1585 1586 1587 1588 1588 1588 1589 1591 1592 1593 1594 1595 1597 1598
1545 1547 1550 1552 1554 1556 1557 1558 1560 1562 1563 1564 1566 1567 1569 1570 1571 1572 1573 1574 1575 1576 1578 1579 1580 1581 1583 1584 1585 1586 1587 1588 1588 1588 1589 1590 1591 1592 1594 1595 1596 1597 1598
1545 1547 1550 1552 1553 1556 1558 1559 1561 1562 1564 1565 1566 1568 1570 1571 1572 1573 1574 1575 1576 1577 1579 1580 1581 1582 1584 1585 1586 1587 1588 1588 1589 1589 1590 1591 1592 1593 1594 1595 1596 1597 1598
1544 1547 1549 1551 1553 1555 1557 1559 1561 1563 1564 1565 1566 1568 1569 1571 1573 1574 1575 1576 1577 1578 1579 1580 1582 1583 1584 1585 1586 1587 1588 1589 1589 1589 1590 1591 1592 1593 1594 1595 1596 1597 1598
1543 1546 1548 1549 1551 1554 1556 1558 1561 1563 1564 1566 1566 1568 1570 1571 1572 1574 1575 1576 1578 1579 1580 1581 1582 1583 1584 1585 1586 1587 1588 1589 1589 1590 1590 1591 1592 1593 1594 1595 1596 1597 1598
1542 1544 1546 1548 1550 1552 1555 1558 1560 1563 1564 1565 1566 1567 1569 1571 1572 1574 1575 1576 1578 1579 1580 1581 1582 1583 1584 1586 1586 1587 1588 1589 1589 1590 1590 1591 1592 1593 1594 1595 1596 1597 1598
1540 1543 1545 1548 1549 1551 1554 1556 1559 1562 1564 1565 1566 1567 1569 1570 1572 1573 1575 1576 1577 1579 1580 1581 1582 1583 1584 1585 1586 1587 1587 1588 1589 1590 1590 1591 1591 1592 1593 1594 1595 1596 1597
1539 1541 1543 1546 1547 1549 1552 1555 1557 1560 1562 1564 1565 1566 1568 1570 1571 1573 1574 1576 1577 1578 1580 1581 1582 1583 1584 1584 1585 1586 1586 1587 1588 1589 1590 1591 1591 1591 1592 1593 1594 1595 1596
1537 1539 1541 1544 1546 1548 1551 1553 1556 1558 1560 1562 1564 1565 1567 1569 1570 1572 1573 1575 1576 1578 1579 1580 1581 1582 1583 1584 1584 1585 1585 1586 1587 1588 1589 1590 1590 1591 1591 1592 1593 1594 1595
1536 1538 1539 1542 1544 1546 1549 1551 1553 1556 1558 1561 1562 1564 1565 1567 1568 1570 1572 1573 1575 1577 1578 1579 1580 1581 1582 1583 1584 1584 1585 1585 1586 1587 1588 1588 1589 1590 1591 1591 1591 1592 1593
1534 1536 1538 1540 1542 1544 1546 1549 1551 1554 1556 1558 1560 1561 1563 1565 1567 1569 1570 1572 1573 1575 1576 1577 1578 1579 1581 1582 1583 1583 1584 1585 1585 1585 1586 1587 1588 1589 1589 1590 1590 1591 1591
1532 1533 1536 1537 1540 1542 1545 1547 1549 1552 1554 1556 1557 1559 1561 1562 1564 1566 1568 1570 1572 1573 1574 1576 1577 1578 1579 1580 1581 1582 1582 1582 1583 1584 1585 1585 1586 1587 1588 1588 1589 1590 1590
1530 1532 1534 1536 1538 1541 1543 1545 1547 1548 1550 1552 1554 1556 1558 1559 1561 1564 1566 1567 1569 1571 1572 1573 1574 1576 1577 1578 1579 1579 1580 1580 1582 1582 1583 1583 1584 1585 1586 1587 1587 1588 1588
1529 1531 1533 1535 1536 1538 1540 1542 1544 1546 1548 1550 1551 1553 1555 1556 1558 1561 1563 1565 1566 1568 1570 1571 1572 1573 1575 1576 1576 1577 1578 1578 1579 1580 1580 1581 1582 1582 1583 1584 1585 1586 1586
1528 1530 1532 1533 1534 1536 1538 1540 1542 1543 1545 1547 1548 1550 1552 1554 1555 1558 1559 1561 1563 1564 1566 1568 1569 1570 1572 1573 1574 1575 1576 1576 1576 1577 1577 1578 1579 1580 1581 1581 1582 1583 1583